LRC634 SEGU-MROC

Flight info

Callsign LRC634
Flight time N/A
Altitude 38000
Route GYV UM659 DRAKE PARRI3D
Aircraft A20N/M-SDE2E3FGHIJ1RWXY/LB1

Departure

Time 2026-05-08 09:10
Airport José Joaquín de Olmedo International Airport (SEGU)

Arrival

Time N/A
Airport Juan Santamaría International Airport (MROC)
Time Latitude Longitude Altitude Speed Heading
2026-05-08 08:44 -2.14713 -79.88240 28 ft 0 kts 300°
2026-05-08 09:02 -2.14714 -79.88239 28 ft 2 kts 300°
2026-05-08 09:02 -2.14723 -79.88222 28 ft 2 kts 300°
2026-05-08 09:02 -2.14733 -79.88207 28 ft 3 kts 311°
2026-05-08 09:02 -2.14747 -79.88194 28 ft 3 kts 338°
2026-05-08 09:03 -2.14766 -79.88190 28 ft 3 kts 10°
2026-05-08 09:03 -2.14785 -79.88196 28 ft 3 kts 30°
2026-05-08 09:03 -2.14802 -79.88207 28 ft 3 kts 31°
2026-05-08 09:03 -2.14804 -79.88208 28 ft 1 kts 30°
2026-05-08 09:05 -2.14784 -79.88181 28 ft 11 kts 81°
2026-05-08 09:06 -2.14834 -79.88080 28 ft 21 kts 123°
2026-05-08 09:06 -2.14907 -79.88078 28 ft 14 kts 208°
2026-05-08 09:06 -2.15036 -79.88150 28 ft 27 kts 210°
2026-05-08 09:06 -2.15199 -79.88243 28 ft 23 kts 206°
2026-05-08 09:07 -2.15247 -79.88237 28 ft 6 kts 131°
2026-05-08 09:07 -2.15320 -79.88235 35 ft 18 kts 207°
2026-05-08 09:07 -2.15452 -79.88307 27 ft 24 kts 210°
2026-05-08 09:07 -2.15608 -79.88398 27 ft 28 kts 210°
2026-05-08 09:08 -2.15781 -79.88498 28 ft 27 kts 208°
2026-05-08 09:08 -2.15946 -79.88593 28 ft 27 kts 210°
2026-05-08 09:08 -2.16109 -79.88688 28 ft 27 kts 210°
2026-05-08 09:08 -2.16273 -79.88781 28 ft 27 kts 210°
2026-05-08 09:09 -2.16439 -79.88878 28 ft 28 kts 211°
2026-05-08 09:09 -2.16606 -79.88975 28 ft 28 kts 210°
2026-05-08 09:09 -2.16753 -79.89043 28 ft 14 kts 179°
2026-05-08 09:09 -2.16798 -79.88980 27 ft 9 kts 69°
2026-05-08 09:10 -2.16732 -79.88935 27 ft 22 kts 30°
2026-05-08 09:10 -2.16343 -79.88712 28 ft 104 kts 30°
2026-05-08 09:10 -2.15519 -79.88237 32 ft 167 kts 30°
2026-05-08 09:10 -2.14514 -79.87652 704 ft 169 kts 30°
2026-05-08 09:11 -2.13509 -79.87066 1532 ft 168 kts 28°
2026-05-08 09:11 -2.12475 -79.86465 2251 ft 177 kts 28°
2026-05-08 09:11 -2.11314 -79.85843 2736 ft 201 kts 24°
2026-05-08 09:11 -2.09872 -79.85400 3075 ft 240 kts
2026-05-08 09:12 -2.08165 -79.85701 3684 ft 257 kts 337°
2026-05-08 09:12 -2.06456 -79.86410 4305 ft 271 kts 336°
2026-05-08 09:12 -2.04706 -79.87151 5201 ft 275 kts 336°
2026-05-08 09:12 -2.02941 -79.87906 6125 ft 277 kts 336°
2026-05-08 09:13 -2.01163 -79.88671 6987 ft 280 kts 336°
2026-05-08 09:13 -1.99362 -79.89447 7775 ft 284 kts 337°
2026-05-08 09:13 -1.97557 -79.90224 8580 ft 287 kts 337°
2026-05-08 09:13 -1.95705 -79.91021 9382 ft 292 kts 337°
2026-05-08 09:14 -1.93825 -79.91829 10127 ft 297 kts 338°
2026-05-08 09:14 -1.91857 -79.92673 10433 ft 318 kts 338°
2026-05-08 09:14 -1.89751 -79.93576 10641 ft 340 kts 337°
2026-05-08 09:14 -1.87543 -79.94524 11185 ft 348 kts 337°
2026-05-08 09:15 -1.85315 -79.95482 11911 ft 351 kts 337°
2026-05-08 09:15 -1.83048 -79.96455 12609 ft 355 kts 337°
2026-05-08 09:15 -1.80768 -79.97435 13314 ft 358 kts 337°
2026-05-08 09:15 -1.78462 -79.98425 13965 ft 362 kts 337°
2026-05-08 09:16 -1.76137 -79.99424 14553 ft 366 kts 337°
2026-05-08 09:16 -1.73782 -80.00435 15133 ft 370 kts 337°
2026-05-08 09:16 -1.71399 -80.01458 15702 ft 374 kts 337°
2026-05-08 09:16 -1.68993 -80.02491 16256 ft 378 kts 337°
2026-05-08 09:17 -1.66561 -80.03535 16807 ft 382 kts 337°
2026-05-08 09:17 -1.64105 -80.04590 17314 ft 387 kts 337°
2026-05-08 09:17 -1.61643 -80.05647 17844 ft 391 kts 337°
2026-05-08 09:17 -1.59139 -80.06722 18334 ft 395 kts 337°
2026-05-08 09:18 -1.56602 -80.07810 18815 ft 397 kts 337°
2026-05-08 09:18 -1.54057 -80.08903 19288 ft 400 kts 337°
2026-05-08 09:18 -1.51493 -80.10003 19763 ft 402 kts 337°
2026-05-08 09:18 -1.48905 -80.11096 20224 ft 405 kts 339°
2026-05-08 09:19 -1.46295 -80.12102 20708 ft 407 kts 340°
2026-05-08 09:19 -1.43635 -80.13090 21160 ft 410 kts 340°
2026-05-08 09:19 -1.40947 -80.14089 21619 ft 412 kts 340°
2026-05-08 09:19 -1.38249 -80.15101 22084 ft 415 kts 340°
2026-05-08 09:20 -1.35538 -80.16126 22524 ft 417 kts 340°
2026-05-08 09:20 -1.32822 -80.17158 22964 ft 420 kts 340°
2026-05-08 09:20 -1.30074 -80.18204 23400 ft 422 kts 340°
2026-05-08 09:20 -1.27327 -80.19251 23766 ft 425 kts 339°
2026-05-08 09:21 -1.24551 -80.20307 24107 ft 427 kts 339°
2026-05-08 09:21 -1.21763 -80.21369 24418 ft 431 kts 339°
2026-05-08 09:22 -1.04625 -80.27895 26219 ft 450 kts 339°
2026-05-08 09:23 -1.01650 -80.29027 26514 ft 453 kts 339°
2026-05-08 09:23 -0.98735 -80.30136 26802 ft 455 kts 339°
2026-05-08 09:23 -0.95725 -80.31282 27081 ft 458 kts 339°
2026-05-08 09:23 -0.92781 -80.32402 27355 ft 461 kts 339°
2026-05-08 09:24 -0.89743 -80.33559 27631 ft 464 kts 339°
2026-05-08 09:24 -0.86754 -80.34696 27899 ft 466 kts 339°
2026-05-08 09:24 -0.83722 -80.35850 28173 ft 468 kts 338°
2026-05-08 09:24 -0.80651 -80.37019 28448 ft 470 kts 338°
2026-05-08 09:25 -0.77591 -80.38183 28715 ft 473 kts 338°
2026-05-08 09:25 -0.74503 -80.39359 28980 ft 475 kts 338°
2026-05-08 09:25 -0.71401 -80.40539 29249 ft 476 kts 338°
2026-05-08 09:25 -0.68295 -80.41720 29487 ft 479 kts 338°
2026-05-08 09:26 -0.65170 -80.42908 29749 ft 481 kts 338°
2026-05-08 09:26 -0.62033 -80.44102 29993 ft 483 kts 338°
2026-05-08 09:26 -0.58892 -80.45297 30251 ft 484 kts 338°
2026-05-08 09:26 -0.55785 -80.46480 30524 ft 484 kts 338°
2026-05-08 09:27 -0.52630 -80.47682 30781 ft 485 kts 338°
2026-05-08 09:27 -0.49471 -80.48884 31072 ft 485 kts 338°
2026-05-08 09:27 -0.46319 -80.50085 31424 ft 484 kts 338°
2026-05-08 09:27 -0.43177 -80.51282 31789 ft 482 kts 338°
2026-05-08 09:28 -0.40045 -80.52475 32152 ft 480 kts 338°
2026-05-08 09:28 -0.36933 -80.53661 32510 ft 478 kts 339°
2026-05-08 09:28 -0.34835 -80.54461 32753 ft 477 kts 339°
2026-05-08 09:28 -0.31773 -80.55627 33079 ft 476 kts 339°
2026-05-08 09:29 -0.28682 -80.56806 33420 ft 474 kts 339°
2026-05-08 09:29 -0.25605 -80.57978 33719 ft 473 kts 339°
2026-05-08 09:29 -0.22530 -80.59149 33994 ft 472 kts 339°
2026-05-08 09:29 -0.19463 -80.60318 34262 ft 471 kts 339°
2026-05-08 09:30 -0.16403 -80.61483 34533 ft 470 kts 339°
2026-05-08 09:30 -0.13353 -80.62645 34807 ft 468 kts 339°
2026-05-08 09:30 -0.10323 -80.63799 35100 ft 466 kts 340°
2026-05-08 09:30 -0.07300 -80.64950 35393 ft 463 kts 340°
2026-05-08 09:31 -0.04293 -80.66095 35681 ft 461 kts 340°
2026-05-08 09:31 -0.01298 -80.67236 35945 ft 459 kts 340°
2026-05-08 09:31 0.01691 -80.68374 36197 ft 458 kts 340°
2026-05-08 09:31 0.04668 -80.69508 36459 ft 457 kts 340°
2026-05-08 09:32 0.07631 -80.70635 36693 ft 455 kts 340°
2026-05-08 09:32 0.10594 -80.71763 36919 ft 454 kts 340°
2026-05-08 09:32 0.13543 -80.72885 37149 ft 453 kts 340°
2026-05-08 09:32 0.16487 -80.74006 37341 ft 453 kts 340°
2026-05-08 09:33 0.19434 -80.75127 37548 ft 452 kts 340°
2026-05-08 09:33 0.22356 -80.76240 37733 ft 451 kts 340°
2026-05-08 09:33 0.25294 -80.77358 37886 ft 451 kts 340°
2026-05-08 09:34 0.31140 -80.79583 37889 ft 449 kts 340°
2026-05-08 09:34 0.36989 -80.81809 37892 ft 452 kts 340°
2026-05-08 09:35 0.42872 -80.84048 37886 ft 459 kts 340°
2026-05-08 09:35 0.48884 -80.86337 37889 ft 465 kts 340°
2026-05-08 09:36 0.54944 -80.88644 37887 ft 466 kts 340°
2026-05-08 09:36 0.61010 -80.90954 37887 ft 466 kts 340°
2026-05-08 09:37 0.67070 -80.93261 37886 ft 466 kts 340°
2026-05-08 09:37 0.73128 -80.95566 37886 ft 465 kts 340°
2026-05-08 09:38 0.79177 -80.97869 37888 ft 465 kts 340°
2026-05-08 09:38 0.85232 -81.00174 37885 ft 465 kts 340°
2026-05-08 09:39 0.91281 -81.02477 37887 ft 465 kts 340°
2026-05-08 09:39 0.97298 -81.04768 37885 ft 465 kts 340°
2026-05-08 09:40 1.03346 -81.07070 37886 ft 465 kts 340°
2026-05-08 09:40 1.09387 -81.09370 37889 ft 464 kts 340°
2026-05-08 09:41 1.15430 -81.11672 37882 ft 464 kts 340°
2026-05-08 09:41 1.21471 -81.13972 37881 ft 464 kts 340°
2026-05-08 09:42 1.27519 -81.16276 37883 ft 464 kts 340°
2026-05-08 09:42 1.33514 -81.18559 37890 ft 464 kts 340°
2026-05-08 09:43 1.39557 -81.20860 37886 ft 464 kts 340°
2026-05-08 09:43 1.45596 -81.23153 37881 ft 464 kts 340°
2026-05-08 09:44 1.51645 -81.25432 37881 ft 464 kts 340°
2026-05-08 09:44 1.57693 -81.27712 37882 ft 464 kts 340°
2026-05-08 09:45 1.63743 -81.29996 37882 ft 464 kts 340°
2026-05-08 09:45 1.69782 -81.32275 37877 ft 464 kts 340°
2026-05-08 09:46 1.75833 -81.34560 37878 ft 464 kts 340°
2026-05-08 09:46 1.81877 -81.36842 37879 ft 464 kts 340°
2026-05-08 09:47 1.87875 -81.39106 37874 ft 464 kts 340°
2026-05-08 09:47 1.93917 -81.41388 37878 ft 464 kts 340°
2026-05-08 09:48 1.99961 -81.43671 37874 ft 464 kts 340°
2026-05-08 09:48 2.06016 -81.45957 37871 ft 464 kts 340°
2026-05-08 09:49 2.12056 -81.48238 37874 ft 464 kts 340°
2026-05-08 09:49 2.18089 -81.50517 37876 ft 464 kts 340°
2026-05-08 09:50 2.24100 -81.52788 37876 ft 464 kts 340°
2026-05-08 09:50 2.30144 -81.55071 37868 ft 464 kts 340°
2026-05-08 09:51 2.36189 -81.57355 37867 ft 464 kts 340°
2026-05-08 09:51 2.42242 -81.59642 37863 ft 464 kts 340°
2026-05-08 09:52 2.48294 -81.61929 37861 ft 464 kts 340°
2026-05-08 09:52 2.54298 -81.64198 37864 ft 464 kts 340°
2026-05-08 09:53 2.60339 -81.66481 37862 ft 464 kts 340°
2026-05-08 09:53 2.66385 -81.68767 37861 ft 464 kts 340°
2026-05-08 09:54 2.72439 -81.71056 37864 ft 464 kts 340°
2026-05-08 09:54 2.78481 -81.73340 37861 ft 464 kts 340°
2026-05-08 09:55 2.84529 -81.75627 37859 ft 464 kts 340°
2026-05-08 09:55 2.90581 -81.77916 37860 ft 464 kts 340°
2026-05-08 09:56 2.96616 -81.80198 37861 ft 464 kts 340°
2026-05-08 09:56 3.02621 -81.82470 37862 ft 465 kts 340°
2026-05-08 09:57 3.11698 -81.85903 37861 ft 465 kts 340°
2026-05-08 09:57 3.17748 -81.88193 37863 ft 465 kts 340°
2026-05-08 09:58 3.23807 -81.90486 37857 ft 465 kts 340°
2026-05-08 09:58 3.29868 -81.92780 37855 ft 465 kts 341°
2026-05-08 09:59 3.35920 -81.95070 37863 ft 465 kts 341°
2026-05-08 09:59 3.41986 -81.97367 37861 ft 466 kts 341°
2026-05-08 10:00 3.48049 -81.99662 37861 ft 466 kts 341°
2026-05-08 10:00 3.54074 -82.01944 37861 ft 466 kts 341°
2026-05-08 10:01 3.60135 -82.04252 37864 ft 466 kts 340°
2026-05-08 10:01 3.66196 -82.06566 37854 ft 466 kts 340°
2026-05-08 10:02 3.72270 -82.08883 37858 ft 466 kts 340°
2026-05-08 10:02 3.78324 -82.11191 37861 ft 466 kts 340°
2026-05-08 10:03 3.84395 -82.13507 37862 ft 467 kts 340°
2026-05-08 10:03 3.90465 -82.15822 37858 ft 467 kts 340°
2026-05-08 10:04 3.96508 -82.18128 37860 ft 467 kts 340°
2026-05-08 10:04 4.02580 -82.20445 37861 ft 467 kts 340°
2026-05-08 10:05 4.08658 -82.22764 37861 ft 467 kts 340°
2026-05-08 10:05 4.14726 -82.25080 37863 ft 467 kts 340°
2026-05-08 10:06 4.20793 -82.27397 37862 ft 467 kts 340°
2026-05-08 10:06 4.26876 -82.29719 37858 ft 467 kts 340°
2026-05-08 10:07 4.32961 -82.32043 37861 ft 468 kts 340°
2026-05-08 10:07 4.39046 -82.34367 37863 ft 468 kts 340°
2026-05-08 10:08 4.45132 -82.36692 37858 ft 468 kts 340°
2026-05-08 10:08 4.51172 -82.39000 37857 ft 468 kts 340°
2026-05-08 10:09 4.57271 -82.41324 37857 ft 468 kts 340°
2026-05-08 10:09 4.63368 -82.43635 37859 ft 469 kts 340°
2026-05-08 10:10 4.69473 -82.45952 37860 ft 469 kts 340°
2026-05-08 10:10 4.75578 -82.48269 37864 ft 469 kts 340°
2026-05-08 10:11 4.81694 -82.50592 37864 ft 470 kts 340°
2026-05-08 10:11 4.87801 -82.52911 37860 ft 470 kts 340°
2026-05-08 10:12 4.93919 -82.55236 37862 ft 470 kts 340°
2026-05-08 10:12 5.00002 -82.57548 37861 ft 470 kts 340°
2026-05-08 10:13 5.05125 -82.59495 37860 ft 470 kts 340°
2026-05-08 10:13 5.12239 -82.62200 37860 ft 470 kts 340°
2026-05-08 10:14 5.17320 -82.64132 37861 ft 470 kts 340°
2026-05-08 10:14 5.23435 -82.66458 37863 ft 470 kts 340°
2026-05-08 10:15 5.29556 -82.68787 37859 ft 469 kts 340°
2026-05-08 10:15 5.35660 -82.71109 37857 ft 469 kts 340°